Location: Düngen
(52.0952°N, 10.0219°E)
Time: 19:47:16
(UTC+00:00)

ADEOS - Pass Details

Date: 11 March 2026
Orbit: 790 x 791 km, 98.8° (Epoch: 20 April)

Event Time Altitude Azimuth Distance (km) Brightness Sun altitude
Exits shadow 19:11:36 25° 146° (SE) 1,567 4.7 -18.1°
Maximum altitude 19:14:40 67° 70° (ENE) 858 3.5 -18.6°
Drops below altitude 10° 19:19:51 10° 349° (NNW) 2,369 6.4 -19.3°
Sets 19:22:12 0° 347° (NNW) 3,302 7.3 -19.7°
